NUSAT-2 (BATATA) (41558 NORAD) Tracking and Keplerian Element Data

This shows tracking and keplerian element data for the satellite.

Feedback or suggestion? Click here.




ElementValue
Catalog41558
NameNUSAT-2 (BATATA)
Epoch Orbit11949
Epoch Day203.20341154
Epoch Year2018
RAAN287.4787
Inclination97.4388
Eccentricity0.001413
Argument of Perigee38.7752
Mean Anonmoly321.4498
Mean Motion15.28285411
Decay Rate1.129E-05
L11 41558U 16033C 18203.20341154 .00001129 00000-0 43605-4 0 9995
L22 41558 97.4388 287.4787 0014130 38.7752 321.4498 15.28285411119490

Live tracking and technical data element details for NUSAT-2 (BATATA) (NORAD 41558). NUSAT-2 (BATATA) can be tracked NOW for your location showing map with azimuth and elevation plus other details from your city location.

Track the satellite on the map from your city or location and see movement details for azimuth, elevation, latitude, longitude, range, height, and movement on the map or in text.







IsCatalogInMostPopularTable: catalog: 41558, numindb: 49
Update: records affected: 1



GetName: 41558 NUSAT-2 (BATATA)

Hit Count: updated at: Mon, 23 Jul 2018 08:03:06 GMT